Temp
7 8 8 7 7 7 7 8 7 7 7 7 7 7 7 7 7 7 7 7 8 8 8 8 8 8 8 8 8 8 10 11 13 15 17 20 21 20 20 20 20 19 19 20 21 22 23 23 24 23 24 25 25 26 25 25 26 25 26 25 24 25 26 27 28 28 27 28 28 28 28 27 27 28 27 27 28 28 28 28 27 27 27 28 28 27 26 24
7 7 7 7 7 7 7 7 7 7 7 7 7 7 7 7 8 8 8 8 8 8 8 8 8 8 8 8 8 9 10 12 14 17 19 20 20 20 20 20 20 20 20 21 22 23 24 24 24 24 24 25 25 25 25 25 25 25 26 25 25 27 28 27 27 27 27 27 27 28 28 27 27 28 27 27 28 28 27 27 27 27 26 27 27 26 25 23
7 7 7 7 7 7 7 7 7 7 7 7 7 7 7 7 8 8 8 8 8 8 8 8 8 8 8 8 9 10 11 13 17 20 20 20 20 20 20 20 20 20 20 22 23 23 24 24 24 24 24 25 25 25 25 25 25 26 26 25 26 28 27 27 27 27 27 27 27 27 28 28 27 27 27 27 28 27 27 28 27 27 26 26 26 26 25 23
7 7 7 7 7 8 8 8 8 8 8 8 8 8 7 7 7 8 8 8 8 8 8 8 8 8 8 9 10 10 11 16 21 22 21 20 20 19 19 20 20 20 21 22 22 23 23 24 24 24 25 25 25 25 25 25 25 26 25 26 27 27 26 27 27 27 27 27 27 27 27 27 27 27 27 27 28 27 28 29 28 28 27 26 25 25 25 24
7 7 7 7 7 8 8 8 8 8 8 8 8 8 8 8 8 8 8 8 8 8 8 8 8 8 8 10 11 10 13 19 22 22 20 20 20 19 19 19 19 20 21 22 22 23 23 24 24 24 24 25 25 25 25 25 25 25 25 26 27 27 26 27 27 27 27 27 27 27 27 27 27 27 27 27 28 28 29 29 28 28 27 26 25 25 25 24
7 7 7 7 7 8 8 8 8 8 8 8 8 8 8 8 8 8 8 7 8 8 8 8 8 8 10 12 11 11 16 21 22 21 20 21 21 19 19 19 19 20 21 22 23 23 24 24 24 24 24 25 25 25 25 25 25 25 26 27 26 26 26 27 27 27 27 26 27 27 27 27 27 27 27 27 28 28 28 28 28 28 27 27 26 25 24 24
7 7 7 7 7 8 8 8 8 8 8 8 8 8 8 8 8 8 8 8 8 8 8 8 8 9 11 12 11 13 19 22 21 20 20 20 20 19 19 19 20 20 22 23 23 24 24 24 24 24 25 25 25 25 25 25 25 25 26 26 26 26 26 26 27 27 27 26 27 27 27 27 27 27 27 27 28 27 27 28 27 27 27 27 26 25 24 24
7 7 7 7 7 7 8 8 7 8 8 8 8 8 8 8 8 8 8 8 8 8 9 9 9 11 12 11 14 19 22 22 21 19 20 20 20 19 19 19 20 21 22 23 24 24 24 24 24 25 25 25 25 25 25 25 25 25 25 26 26 26 26 27 27 27 27 27 27 27 26 27 27 27 27 27 28 27 27 27 27 26 26 26 25 24 24 23
7 7 7 7 7 7 7 7 8 8 8 8 8 8 8 8 8 8 8 7 8 9 10 10 12 12 11 12 16 22 22 21 20 19 19 20 20 19 20 20 20 21 23 23 24 24 24 24 24 24 25 25 24 25 25 24 25 25 25 26 26 26 27 27 27 27 26 27 27 26 27 27 27 26 27 28 27 27 27 27 26 26 25 25 25 24 23 23
7 7 7 7 7 8 9 9 9 8 8 8 8 8 8 8 8 8 8 8 9 10 12 12 13 13 12 13 18 22 21 20 20 20 19 19 19 19 20 21 21 22 23 23 23 24 24 24 24 25 25 25 24 25 25 25 25 25 26 26 26 26 27 26 26 26 26 26 26 27 27 28 26 26 27 27 27 26 27 27 26 26 25 25 24 23 23 23
7 7 7 7 9 10 11 11 10 9 8 8 8 8 8 8 8 8 8 10 11 12 13 13 13 12 12 15 20 22 21 20 20 20 19 19 19 20 21 21 21 22 23 23 23 24 24 24 25 25 25 24 24 24 25 25 25 25 25 26 26 27 26 26 26 26 27 27 26 27 28 28 27 27 27 26 26 27 27 26 26 26 25 25 24 23 23 23
7 7 8 10 12 12 12 12 11 10 9 9 9 8 8 9 9 8 10 11 13 13 13 13 13 12 12 17 21 22 20 20 20 20 19 19 20 21 21 21 21 22 23 24 24 24 23 24 24 24 24 24 25 25 25 25 25 25 25 25 26 27 26 26 27 26 27 27 26 27 27 27 28 27 27 26 26 27 27 27 26 26 26 25 24 23 23 23
7 8 11 13 14 13 13 13 13 12 12 11 11 10 10 10 10 11 11 11 13 14 13 13 12 10 13 20 22 20 20 20 20 20 19 19 20 20 20 20 21 21 22 24 24 23 23 23 23 24 24 24 25 25 24 25 25 25 26 25 26 26 26 27 27 27 27 26 26 27 24 25 29 28 26 25 25 26 27 27 27 26 26 25 24 23 23 24
7 10 13 14 14 14 14 14 14 13 13 13 13 13 12 12 12 12 12 12 12 13 13 13 12 10 15 21 21 20 20 19 19 20 20 20 21 21 20 20 20 21 21 22 22 22 22 22 23 24 24 24 25 25 25 25 25 26 26 26 26 24 24 26 27 27 27 26 27 27 23 25 29 27 26 25 25 26 27 27 27 26 26 25 24 24 24 24
8 10 13 14 14 14 14 14 14 14 14 14 14 13 13 13 13 13 13 12 12 14 13 12 11 12 19 22 21 20 20 19 20 21 21 21 22 22 22 21 21 21 21 21 21 21 22 22 23 24 24 24 24 24 25 26 26 26 24 23 25 24 24 26 26 27 27 26 28 27 24 26 28 27 26 25 25 26 27 27 27 26 26 25 25 24 24 24
9 11 14 14 14 15 15 15 15 14 14 14 14 14 13 14 14 13 13 12 13 14 12 13 13 14 20 23 20 20 21 21 22 21 21 21 23 23 23 22 22 21 21 21 21 21 22 23 23 24 24 25 25 25 25 24 24 26 24 22 23 24 24 25 26 27 27 26 28 27 25 27 28 27 26 25 25 26 27 27 27 26 26 25 25 25 25 25
9 12 14 14 15 15 15 15 15 15 14 14 14 13 14 14 14 14 14 13 12 12 12 14 15 15 20 22 21 21 23 23 22 21 21 21 22 23 23 23 23 22 22 21 21 22 23 23 23 23 24 25 25 25 24 22 22 24 25 23 23 24 24 24 25 26 27 27 27 27 27 27 27 27 26 25 26 26 27 27 26 26 26 25 26 26 25 25
10 13 14 14 15 15 16 16 16 15 15 14 14 14 14 14 14 13 13 12 11 11 12 14 15 17 21 22 22 23 23 22 21 21 21 20 21 22 23 24 24 23 23 22 22 23 23 24 24 24 25 25 25 25 22 21 22 22 23 23 23 24 24 24 25 25 26 27 27 26 27 27 27 27 27 26 26 26 26 27 26 26 25 25 26 26 26 26
10 13 14 15 15 15 16 16 16 15 15 14 13 13 13 13 13 12 13 13 14 17 18 18 18 20 22 22 23 23 22 21 21 22 22 21 21 22 23 24 24 24 23 23 23 24 24 24 24 23 24 24 24 25 23 23 24 24 24 23 23 23 23 25 25 25 25 26 26 26 26 27 27 27 27 26 25 25 26 26 25 25 25 25 26 26 26 26
11 14 14 15 15 16 16 16 16 15 15 14 12 13 14 15 16 16 16 16 19 21 21 21 21 22 22 23 23 23 22 21 22 23 23 22 22 23 24 24 24 24 24 24 23 23 23 23 23 23 24 24 23 23 23 24 24 24 24 24 24 23 23 25 25 25 25 25 26 26 25 26 26 26 26 25 25 25 25 25 25 25 25 25 26 26 26 26
13 14 15 16 16 16 16 16 16 15 15 14 12 15 19 19 19 20 19 20 22 22 21 22 21 21 22 23 23 23 23 23 24 24 22 22 23 24 24 24 23 24 24 24 23 23 22 22 23 24 23 23 22 22 22 23 23 24 24 24 23 23 24 25 25 24 25 24 25 26 25 26 26 26 26 25 25 25 25 25 25 25 25 26 26 26 25 26
13 14 15 16 16 16 16 16 16 15 15 14 14 18 21 19 19 19 19 20 22 22 21 21 21 21 22 22 22 22 22 24 24 24 22 22 24 24 24 24 23 24 23 23 23 22 22 23 23 23 22 22 21 22 22 23 23 23 24 23 23 24 24 24 24 24 24 24 25 25 25 25 27 26 26 26 25 26 26 25 25 26 26 26 26 26 26 25
14 15 15 16 16 16 16 16 16 15 15 14 17 21 20 18 18 18 18 20 21 21 21 21 21 22 23 23 22 21 23 24 24 24 23 23 24 24 24 24 24 24 23 23 23 22 22 23 23 22 21 22 21 21 22 23 23 23 24 23 22 24 24 22 23 24 24 23 24 25 24 25 26 26 26 26 26 25 25 24 25 25 25 26 26 26 26 25
14 15 15 15 15 15 16 16 15 14 15 16 18 20 18 17 18 18 18 20 21 22 22 21 22 23 23 23 22 22 24 24 24 24 24 23 24 24 24 24 24 24 24 23 23 23 23 23 23 22 21 22 22 22 22 23 23 23 23 23 23 24 23 23 23 24 24 23 23 24 23 23 26 26 26 26 25 24 24 24 24 24 25 25 25 25 25 25
14 15 15 15 15 15 15 15 14 15 16 17 19 19 17 17 17 17 19 20 21 22 22 21 22 23 23 22 22 23 24 24 24 25 24 24 24 24 24 24 23 24 24 23 23 24 23 21 21 22 22 22 23 22 23 23 23 23 23 24 24 24 24 24 24 23 22 22 23 23 21 21 24 25 26 26 25 25 25 25 25 25 25 25 24 25 25 25
14 15 15 15 15 14 14 16 16 16 17 19 19 18 17 17 17 17 18 20 21 22 22 22 22 22 23 23 23 23 23 23 24 24 24 24 24 24 24 23 23 23 23 23 23 24 23 20 21 22 22 22 23 23 24 23 22 22 23 24 24 24 24 23 23 22 21 21 22 23 21 21 23 24 25 25 25 26 25 25 25 25 25 25 25 25 25 24
15 15 15 15 15 14 15 17 18 17 19 20 18 17 17 18 17 17 19 20 20 21 22 22 22 22 22 23 24 23 22 23 23 23 23 23 24 24 23 23 24 23 23 23 22 22 22 22 21 22 22 23 23 23 23 24 23 21 22 24 24 24 23 23 23 22 22 22 22 23 23 21 21 23 25 25 25 25 26 25 25 25 24 24 25 25 25 24
15 16 16 15 15 14 15 16 17 19 20 19 18 17 18 18 17 18 19 19 20 22 23 23 22 22 23 23 23 23 23 23 23 23 24 23 23 24 23 24 24 23 23 22 21 21 22 22 22 22 22 23 24 24 24 23 23 22 22 24 24 24 24 23 23 22 22 22 21 22 23 21 21 23 25 25 24 25 25 25 25 24 24 24 24 23 23 23
16 16 16 16 15 15 15 15 17 20 19 17 18 18 18 18 18 19 20 19 20 22 23 22 22 22 23 23 23 23 23 24 23 23 23 23 23 24 23 24 24 23 23 23 22 22 22 22 23 23 23 23 24 24 23 23 23 22 22 23 24 24 24 23 23 22 22 21 20 21 22 21 21 22 23 24 23 24 24 25 24 24 24 24 23 22 23 23
16 17 17 16 16 15 15 16 17 18 18 18 18 18 18 18 19 19 19 19 21 22 22 23 22 22 23 23 23 23 23 23 23 23 23 23 23 23 23 23 23 23 23 23 23 23 23 21 21 22 23 24 23 22 21 22 22 22 23 23 23 23 23 23 23 22 21 20 21 21 21 21 20 21 23 23 22 23 23 24 24 24 24 23 22 22 22 22
17 17 17 17 16 16 17 18 18 18 18 18 18 18 18 19 20 19 19 20 21 22 22 23 23 23 23 23 23 23 23 23 23 23 23 23 23 23 23 22 23 23 23 23 23 24 23 22 22 23 23 23 23 22 21 21 22 23 23 23 22 22 22 22 22 21 20 20 21 21 21 21 20 21 23 23 22 22 22 22 23 23 23 22 21 22 22 21
18 18 18 17 17 17 17 19 18 18 18 18 18 19 19 19 20 20 20 20 21 21 22 22 22 22 23 23 23 23 23 23 23 23 23 23 23 23 23 22 23 22 21 21 22 23 23 24 23 23 22 22 23 23 22 22 22 23 23 22 21 20 20 20 20 20 20 20 21 21 21 20 21 21 22 22 22 22 21 21 21 21 21 21 21 21 21 21
18 18 18 18 17 17 17 18 17 17 18 18 18 20 20 19 19 20 21 21 20 21 22 21 22 22 22 23 22 22 23 22 22 23 22 23 23 22 21 22 22 22 21 21 21 21 22 24 24 22 22 23 23 23 22 22 22 22 22 21 20 20 20 20 20 20 20 20 21 21 20 20 21 22 22 22 21 21 21 21 20 20 20 20 20 21 21 21
18 18 18 18 17 17 17 17 17 18 17 18 20 20 19 19 19 19 20 21 21 21 22 21 22 22 22 22 21 22 22 22 22 23 23 23 23 22 22 21 22 22 22 21 21 21 21 21 22 23 22 22 23 23 23 23 23 23 24 23 21 20 20 20 20 20 20 20 20 20 20 20 21 21 21 21 21 21 21 21 20 20 20 20 20 21 20 20
18 17 17 17 17 17 17 17 18 18 17 19 20 20 19 19 20 20 20 21 22 22 21 21 22 22 22 22 21 21 21 21 22 23 23 23 22 22 22 21 21 22 22 21 21 21 20 21 22 22 22 22 23 23 24 23 23 23 24 23 21 21 21 20 20 19 19 20 20 20 20 21 21 20 21 21 21 21 21 21 21 20 20 20 20 20 20 19
17 17 17 17 17 17 17 18 18 18 18 20 20 20 20 20 21 21 21 21 21 22 22 21 22 22 21 21 21 21 21 21 22 22 22 22 21 21 21 21 21 21 21 21 21 21 20 21 22 22 21 22 22 23 23 23 22 22 22 22 22 23 23 20 19 19 18 19 20 20 21 21 21 21 21 21 21 21 21 21 21 20 20 20 19 19 19 19
17 17 18 18 17 17 18 18 17 18 19 20 20 20 20 21 21 21 21 21 21 21 21 21 21 21 21 21 21 21 21 21 22 22 21 21 21 20 20 20 20 20 21 21 21 21 20 21 23 23 22 21 21 22 23 23 22 22 21 22 23 23 22 21 20 19 19 19 20 20 20 20 20 20 21 21 21 21 21 21 21 20 20 20 19 19 18 18
16 17 19 18 17 17 18 17 17 18 20 20 19 19 20 21 20 21 20 20 20 21 21 21 20 21 21 21 21 21 21 21 21 21 21 21 20 19 20 20 20 20 21 21 21 21 20 20 22 23 22 21 21 22 22 22 22 22 22 23 23 21 21 21 20 19 19 19 20 20 20 20 20 21 21 21 21 21 21 21 21 20 20 19 19 18 18 18
15 18 19 17 17 18 17 17 18 19 20 19 20 20 20 20 20 20 20 20 21 21 21 21 21 20 21 21 21 21 21 21 21 21 21 21 20 19 19 20 20 20 20 21 21 21 20 20 20 22 22 22 22 22 21 21 22 22 22 23 23 21 21 21 20 20 20 19 19 20 20 20 21 22 22 22 22 21 21 21 20 20 19 18 18 18 17 17
16 19 19 17 17 18 17 17 19 20 19 19 20 20 20 20 20 20 20 19 20 21 21 21 21 20 20 21 21 21 20 20 21 21 20 21 20 19 19 19 19 20 20 20 20 20 20 19 19 21 22 21 21 22 21 21 22 21 21 21 21 21 21 21 21 21 20 19 19 19 19 20 22 23 23 23 22 21 21 21 20 19 18 18 17 17 17 17
17 19 18 17 17 17 17 18 19 19 19 19 19 20 20 20 20 20 19 19 20 20 20 21 21 20 20 20 20 20 20 20 20 21 20 20 20 19 18 17 18 19 20 20 20 20 20 19 19 20 21 21 21 21 21 21 21 21 21 21 21 21 21 20 20 21 21 20 20 19 19 20 21 22 23 23 22 21 21 20 19 19 18 17 16 16 16 16
17 19 18 16 17 17 17 19 19 18 19 19 19 19 19 18 19 20 19 19 20 20 20 20 20 20 20 20 20 20 20 20 20 20 20 20 20 19 17 16 17 18 19 20 20 19 18 19 19 19 20 21 21 20 19 19 20 20 21 21 22 21 21 20 19 20 20 20 20 20 19 20 19 20 21 21 20 20 20 20 19 19 18 17 16 16 16 16
18 18 17 16 17 17 18 19 18 18 19 19 19 19 18 18 19 19 19 20 20 20 20 20 19 19 20 20 20 20 20 20 19 20 20 19 19 18 17 16 16 17 19 19 19 18 17 18 19 19 20 21 21 20 19 19 19 20 20 21 21 21 21 20 20 20 19 19 20 19 19 19 18 18 19 19 19 19 19 19 19 18 17 17 16 16 16 16
17 17 17 17 17 17 18 18 18 19 19 18 18 18 18 18 18 19 19 19 19 19 19 19 19 19 19 19 19 20 19 19 19 19 19 19 18 17 16 17 17 18 19 18 18 18 18 18 18 18 18 19 19 20 19 19 19 20 20 20 19 20 20 19 19 19 19 19 20 18 18 19 18 17 18 19 19 19 19 19 19 18 17 17 17 16 16 16
15 16 17 17 17 17 17 17 18 19 18 17 18 18 18 18 17 17 18 18 18 18 18 18 18 19 19 19 18 19 19 18 18 18 18 18 18 16 16 17 17 18 18 16 17 18 18 18 18 17 17 17 18 19 19 19 19 20 20 19 19 19 19 18 19 18 18 18 19 18 19 19 18 18 18 18 18 19 18 18 18 18 17 17 17 16 16 16
16 16 16 17 18 17 16 15 16 17 17 17 17 17 17 17 17 16 17 17 17 17 18 18 18 18 18 18 18 18 18 18 18 18 18 18 18 17 16 16 17 17 16 15 17 18 17 18 17 17 17 17 18 19 19 18 18 19 19 19 19 19 18 18 18 18 18 18 18 18 19 19 18 18 18 18 18 18 18 18 18 18 17 16 16 16 16 16
15 14 14 14 16 16 16 16 16 16 16 16 16 16 16 17 17 16 17 17 17 17 17 17 17 17 17 17 17 17 17 18 17 17 18 18 18 17 16 16 17 16 15 16 17 17 17 17 17 17 17 18 18 19 19 18 17 18 18 18 18 18 18 18 17 18 19 18 17 19 19 18 19 20 19 18 18 18 18 18 18 18 17 16 16 16 16 16
13 13 12 12 13 15 15 14 15 15 16 16 15 15 15 16 16 16 16 16 16 17 16 16 16 17 17 17 17 16 17 17 16 16 17 17 17 17 16 16 16 16 16 17 17 17 16 16 17 17 17 17 18 18 18 17 17 17 17 17 18 18 17 17 17 18 18 17 17 19 19 18 19 20 20 20 19 19 19 19 18 18 17 17 16 16 16 16
12 12 12 11 12 13 13 12 13 14 15 15 15 14 14 15 15 14 15 15 16 16 16 15 15 16 16 16 17 16 16 16 15 15 16 16 16 16 16 16 16 16 17 17 16 16 16 16 16 17 16 17 17 17 17 17 17 17 17 17 17 17 17 17 17 17 18 17 18 18 17 17 18 19 20 20 19 19 19 19 18 17 17 16 16 16 16 16
10 10 10 12 13 13 12 13 13 14 15 14 14 14 14 14 14 14 14 14 14 15 15 15 15 15 16 16 16 15 14 14 14 14 14 14 15 15 16 16 16 16 17 16 16 15 15 15 15 15 15 15 16 17 17 17 16 16 16 17 17 17 17 17 16 17 17 16 17 17 15 15 18 19 19 19 18 19 19 18 17 17 17 16 16 16 16 16
8 8 7 10 12 12 12 13 13 14 14 13 13 13 13 13 13 13 13 13 13 13 13 14 14 14 15 15 14 13 13 12 13 13 13 14 15 15 15 15 16 16 16 16 15 15 14 15 15 15 14 14 16 16 16 17 16 16 16 16 16 16 16 16 16 16 16 15 15 15 15 15 17 19 19 18 18 18 18 18 17 17 16 16 16 16 16 16
7 7 7 9 12 11 12 13 13 14 13 11 11 12 12 12 13 13 12 12 13 13 13 13 13 14 15 14 13 12 12 12 13 13 13 14 14 15 15 15 15 15 15 15 14 14 15 14 15 15 14 14 15 16 15 15 14 14 15 15 16 16 16 16 16 16 16 16 15 15 15 16 16 17 18 18 18 18 18 18 17 16 16 16 16 16 16 15
Height
802 801 800 799 799 798 797 796 795 794 794 793 792 792 791 791 790 789 788 788 787 787 786 786 785 785 784 783 782 780 779 778 778 778 775 771 770 770 770 771 771 773 774 775 776 776 775 776 775 776 775 774 773 771 772 772 770 773 775 777 775 769 766 761 760 760 760 760 758 756 758 763 761 756 753 752 754 753 754 755 754 755 754 754 756 758 763 770
801 800 799 799 798 797 796 795 794 793 793 792 791 791 790 790 789 789 788 787 787 786 786 785 784 784 783 782 780 779 778 777 776 774 771 769 769 769 769 770 771 773 774 774 774 773 773 773 773 774 773 772 772 771 773 771 771 773 772 775 771 763 760 759 761 761 761 762 760 758 758 760 760 756 753 756 756 755 758 759 757 759 759 758 758 761 766 770
801 800 799 798 797 797 796 795 794 793 792 792 791 790 789 789 789 788 788 787 786 786 785 784 783 783 781 780 779 778 777 776 773 769 767 767 767 768 769 770 771 772 773 773 773 773 772 772 773 773 772 772 771 771 772 771 772 770 771 774 766 759 760 759 761 762 761 761 761 761 758 758 758 756 755 756 756 757 758 757 758 760 761 760 760 762 766 771
800 799 798 797 797 796 795 795 794 793 792 791 790 790 789 788 788 788 787 786 786 785 784 783 782 781 780 779 778 777 777 774 768 765 766 766 766 767 768 770 771 772 773 773 773 773 773 772 772 771 771 771 770 771 771 771 770 769 771 770 760 759 764 761 759 761 760 760 762 761 759 758 757 756 756 755 758 759 754 751 753 756 757 759 760 762 767 771
799 799 798 797 796 795 795 794 793 792 791 790 790 789 788 788 787 787 786 785 785 784 783 782 781 780 779 778 777 777 777 772 765 764 766 765 764 766 768 769 771 772 773 774 773 773 773 771 771 771 771 770 771 772 770 767 768 770 768 764 759 762 766 760 757 760 760 761 762 761 761 759 756 756 756 755 758 757 750 748 750 751 754 757 759 762 766 770
799 798 797 796 795 795 794 793 792 791 790 790 789 788 787 787 786 785 785 784 783 783 782 781 780 779 778 777 776 777 775 769 765 764 765 764 764 765 768 769 771 772 773 773 772 772 771 770 771 771 771 769 770 770 768 767 768 771 765 761 762 762 764 761 758 760 760 762 762 760 759 757 757 757 754 754 754 752 748 748 750 751 753 757 760 764 767 770
797 796 796 795 794 794 793 792 791 790 790 789 788 787 787 786 785 784 784 783 783 782 781 780 779 778 777 776 776 775 769 765 764 765 765 764 765 766 768 770 771 772 772 772 771 770 770 770 769 769 770 770 770 768 768 767 768 770 765 761 762 761 762 761 758 758 759 761 760 757 758 758 759 757 754 753 752 751 750 749 751 753 754 758 762 765 768 771
796 795 794 794 793 792 791 791 790 789 788 788 787 786 786 785 784 783 783 782 781 780 780 779 778 778 777 777 775 769 764 765 765 765 765 765 766 767 769 770 772 772 771 770 769 769 769 769 768 767 769 769 768 768 769 769 768 769 766 762 761 760 760 757 757 758 758 759 757 757 759 758 756 755 755 754 751 752 751 749 752 754 757 760 764 767 770 772
795 794 793 792 791 791 790 789 788 788 787 786 786 785 785 784 783 782 781 781 780 779 779 778 778 777 776 777 773 766 765 767 766 766 766 767 767 768 770 771 772 771 771 770 769 769 768 768 767 767 767 767 768 767 767 769 767 765 764 761 760 760 757 756 757 758 758 757 756 758 759 756 754 755 755 752 751 752 751 751 753 755 759 762 765 768 771 774
793 792 792 791 790 790 789 788 787 786 786 785 785 784 783 783 782 781 780 780 779 779 778 778 778 777 777 776 771 766 767 767 766 766 766 768 768 769 770 770 771 771 770 770 770 769 767 767 767 765 765 766 768 767 767 768 764 762 762 761 760 758 756 757 759 757 757 756 757 758 757 755 754 755 757 753 752 753 753 754 755 757 761 763 765 769 772 774
792 791 791 790 789 789 788 787 786 786 785 784 784 783 782 782 781 780 780 779 779 778 778 777 777 777 777 775 768 765 767 767 767 767 767 768 769 770 770 770 771 770 769 770 770 769 768 767 766 766 766 766 767 767 766 764 762 762 762 761 758 756 757 757 758 757 755 756 756 754 755 755 753 755 756 755 753 753 754 757 756 758 761 763 766 769 772 774
791 790 790 789 788 787 787 786 785 785 784 783 783 782 781 781 780 779 779 779 778 778 777 777 777 777 777 773 766 765 767 768 767 767 768 769 770 770 770 771 771 770 770 769 769 769 769 768 767 767 766 765 765 767 765 761 761 762 762 763 757 754 758 756 755 755 753 756 755 752 758 758 755 756 755 755 755 753 755 756 757 758 760 763 766 769 772 773
790 789 788 788 787 786 786 785 785 784 783 782 782 781 780 780 779 779 778 778 778 778 777 777 777 778 777 770 765 766 767 767 767 767 768 769 770 770 770 771 771 771 770 769 769 770 770 769 768 767 765 765 764 764 763 761 762 761 760 761 757 756 759 755 754 753 753 757 754 754 763 758 753 755 755 756 755 755 756 756 756 758 760 763 766 768 770 771
789 788 787 787 786 786 785 784 784 783 782 782 781 780 779 779 778 778 778 778 778 777 777 777 777 779 775 766 765 767 766 767 767 767 768 769 769 770 771 770 771 771 771 770 770 771 770 770 769 767 765 764 763 762 762 761 760 760 760 760 756 757 760 755 753 752 754 758 751 755 763 754 752 756 756 756 755 756 757 756 756 758 760 762 764 767 768 769
788 787 786 786 785 785 784 783 783 782 782 781 780 779 778 778 778 777 777 777 777 777 777 777 777 777 771 764 766 766 766 767 767 767 768 768 768 769 770 770 771 771 771 771 771 771 770 770 768 766 765 763 763 764 762 760 758 758 763 764 756 755 759 757 755 752 756 757 750 757 761 751 752 757 755 756 756 756 756 756 756 757 759 762 763 765 766 768
787 786 785 785 784 784 783 782 782 781 781 780 779 778 777 777 777 777 777 777 777 777 778 778 777 776 769 763 766 766 765 765 765 767 767 767 768 767 768 770 770 771 771 771 771 771 770 769 767 766 764 763 764 762 760 761 761 758 760 764 761 756 757 759 758 753 754 757 753 757 758 751 754 756 755 757 756 756 756 756 757 758 760 761 762 763 764 767
786 785 784 784 783 783 782 782 781 781 780 780 779 778 777 777 777 777 777 777 777 777 778 777 776 775 768 763 765 765 763 763 764 766 766 767 767 767 768 768 768 770 770 770 771 770 769 768 767 766 763 763 762 761 766 771 767 762 759 762 764 760 758 759 760 756 753 756 756 758 757 754 755 755 755 757 756 757 757 756 758 759 760 761 761 762 763 765
784 783 783 783 782 782 782 781 780 780 780 779 778 778 777 777 777 777 777 777 778 778 778 777 776 775 770 764 763 762 762 763 764 765 765 766 767 767 767 766 766 768 768 769 769 768 768 767 765 766 764 764 762 762 770 771 764 764 763 764 765 763 761 759 759 759 756 757 758 760 758 755 756 754 755 756 756 758 758 757 759 759 760 761 760 761 761 763
783 782 782 782 781 781 781 780 780 779 779 778 778 778 777 777 778 777 778 778 776 773 772 771 770 769 766 761 760 760 761 763 763 764 764 765 766 767 766 766 765 766 767 768 768 767 767 767 768 769 766 764 764 762 765 764 761 763 761 762 763 762 761 758 759 760 759 760 759 759 760 757 757 755 755 757 757 759 759 758 761 760 760 760 760 760 760 762
782 781 781 780 780 780 780 780 779 779 779 778 778 778 777 775 774 773 774 773 769 765 763 763 762 762 760 758 759 760 761 762 762 762 763 764 765 765 765 765 764 765 766 766 768 767 767 771 769 766 765 765 768 768 767 766 766 765 763 762 761 761 760 757 761 762 760 763 759 759 762 759 758 756 756 758 760 760 760 760 762 761 761 760 760 760 760 762
781 781 780 779 780 779 779 779 779 778 778 778 778 777 774 772 772 772 770 766 762 762 762 761 761 761 759 758 759 759 760 760 760 760 763 763 763 765 765 764 767 767 765 766 768 769 771 772 768 764 766 769 770 771 771 770 769 768 765 763 762 762 759 757 763 763 762 765 760 759 763 758 756 756 755 757 760 761 759 760 761 760 760 759 759 760 760 761
781 780 779 779 779 778 779 778 778 778 777 778 777 774 772 773 774 774 772 767 761 760 762 761 761 760 758 758 759 759 760 759 760 760 761 763 762 763 763 764 766 765 765 768 770 772 773 769 765 766 769 772 773 772 772 771 771 769 765 764 764 760 758 761 765 764 763 766 761 760 764 758 753 754 754 755 757 757 756 757 758 758 759 759 758 759 759 761
780 779 779 779 778 778 778 777 778 777 777 777 776 773 772 774 774 773 773 769 763 760 760 760 760 758 757 758 758 759 759 757 759 759 759 762 761 761 762 762 764 764 766 769 768 771 771 765 764 768 770 772 774 774 773 771 770 768 765 766 765 760 763 767 767 766 765 767 764 763 766 759 752 753 753 753 754 755 757 757 757 758 758 758 757 757 758 760
779 778 779 778 778 778 777 777 777 776 777 776 775 773 773 774 773 773 772 768 764 759 757 758 757 756 756 756 756 757 757 755 756 756 758 760 760 760 761 761 764 765 764 764 766 767 765 764 766 769 772 771 772 774 773 770 767 767 766 765 763 762 765 765 765 767 766 769 768 765 768 759 750 754 752 751 755 756 757 758 759 759 758 758 757 757 757 758
779 778 778 777 778 777 777 778 776 776 776 775 774 774 773 773 772 773 771 767 766 760 756 758 757 755 754 755 757 755 755 756 755 755 756 757 758 760 761 761 763 764 763 765 767 763 764 770 770 770 772 769 771 771 769 768 766 766 767 764 762 763 765 764 766 769 769 773 770 768 777 766 751 754 754 752 755 755 755 757 757 757 757 758 759 758 758 757
779 778 778 778 777 777 778 776 775 776 775 772 774 773 773 773 770 772 771 766 765 760 757 758 757 756 754 755 755 754 758 759 754 754 756 757 756 758 761 762 761 763 764 765 765 762 765 771 771 771 771 769 770 767 764 765 766 766 763 759 760 762 766 767 767 771 773 773 769 768 778 773 758 754 754 753 755 753 754 757 757 757 757 757 756 757 757 757
778 778 777 777 777 777 777 774 775 775 772 771 773 772 772 771 769 772 771 772 770 762 757 756 756 756 754 754 753 756 764 761 755 756 756 757 757 756 761 761 761 763 763 765 768 767 766 770 772 771 770 769 767 763 762 763 765 767 762 757 759 761 766 768 767 770 768 767 769 766 769 776 769 757 753 755 756 754 753 756 757 757 758 758 757 756 756 757
778 777 777 777 777 777 775 775 775 772 771 772 771 772 771 769 770 770 773 783 777 759 755 755 754 754 753 753 753 756 759 756 758 760 755 757 758 757 760 759 758 761 761 766 771 768 766 769 771 769 770 767 759 757 760 761 764 767 764 759 758 760 764 764 765 766 766 772 776 766 766 779 772 756 753 756 757 756 754 756 757 757 758 759 759 759 758 758
777 776 776 776 776 776 775 775 774 771 771 772 771 771 770 769 771 768 773 784 771 754 754 755 754 755 753 754 755 755 755 754 758 758 755 757 758 757 760 758 757 761 762 764 766 766 765 765 765 765 768 763 756 758 760 761 764 765 763 760 759 761 762 764 765 763 768 781 780 767 769 779 772 756 754 757 757 758 757 756 757 756 757 758 759 760 759 758
775 774 775 775 775 775 774 774 773 772 771 771 771 770 769 769 770 774 783 781 764 756 755 753 754 756 754 756 757 756 756 755 755 756 756 757 757 757 759 758 758 761 762 763 762 761 761 764 765 765 763 759 758 764 765 763 764 763 762 761 762 763 761 764 763 762 776 784 776 768 769 778 778 760 752 759 762 762 762 759 758 757 757 758 759 760 758 758
774 773 774 774 774 774 772 771 771 771 771 770 770 769 769 769 769 779 785 771 759 758 755 754 756 754 753 755 757 756 756 756 756 756 757 757 757 758 760 761 761 762 763 762 760 758 759 764 763 760 759 759 761 764 766 765 763 763 763 763 769 770 768 770 768 772 787 785 772 769 769 778 783 765 755 762 763 763 766 763 762 761 760 760 761 760 759 758
773 772 772 772 773 773 771 770 770 771 770 769 769 767 768 774 774 775 772 763 764 762 755 757 757 755 755 754 756 757 756 758 757 756 756 756 757 759 762 763 762 768 770 764 762 761 757 755 755 758 759 759 761 763 766 766 764 764 764 767 777 781 782 785 779 777 782 776 770 770 773 780 776 762 760 764 762 763 766 765 764 764 763 763 762 760 759 758
773 771 772 772 772 772 771 770 770 770 769 769 768 764 768 779 779 771 763 762 766 760 755 759 757 756 757 755 759 759 756 760 759 757 759 757 758 762 766 764 762 769 771 767 768 766 759 752 753 759 760 757 758 760 765 766 763 765 764 770 780 784 791 794 782 775 774 773 771 770 777 780 768 760 763 763 764 766 765 766 767 766 766 765 762 760 759 758
772 771 771 770 770 771 770 769 769 768 768 768 766 765 774 781 775 769 765 760 760 758 756 760 757 757 757 757 762 760 759 762 758 757 759 757 760 764 765 766 765 765 766 768 770 769 769 765 758 758 759 759 757 755 756 758 759 759 755 760 771 776 785 790 781 776 773 772 775 778 782 777 767 766 765 762 765 765 764 766 766 766 766 764 763 761 761 760
770 770 770 769 770 769 768 768 768 768 768 766 764 769 778 777 767 765 764 758 757 758 758 759 757 758 760 760 762 760 760 763 759 758 759 759 763 765 765 767 766 764 766 771 771 770 773 767 756 757 758 757 758 753 752 756 759 756 751 758 766 763 767 778 781 781 779 778 778 779 775 763 761 766 763 762 765 763 765 766 765 767 765 764 765 763 763 762
770 769 769 769 769 768 767 767 767 767 766 764 768 771 769 765 760 759 759 757 757 757 758 760 758 759 762 762 763 762 761 761 760 760 762 763 766 767 768 768 768 767 767 769 770 770 773 766 754 756 759 756 758 755 753 758 761 759 759 762 758 751 756 773 784 785 788 788 777 769 768 761 763 767 761 762 765 763 766 765 765 767 766 766 768 766 766 765
769 768 767 768 768 767 767 766 766 767 765 763 769 769 761 759 758 756 757 758 758 757 758 763 762 760 763 764 763 762 761 762 761 761 764 767 769 771 770 770 770 769 766 767 768 768 772 768 754 754 760 758 758 757 754 755 757 760 764 758 751 753 758 767 781 783 786 787 772 764 771 768 766 768 764 762 766 765 765 765 766 768 767 769 770 769 769 767
768 767 766 767 767 766 765 766 766 765 763 764 768 767 760 758 758 756 758 759 758 757 758 762 763 762 762 764 763 762 763 764 762 763 764 766 771 773 771 770 770 769 767 767 768 768 772 773 759 752 759 759 755 759 759 756 754 756 758 752 755 769 770 768 779 783 782 785 774 765 767 764 759 760 763 763 764 765 765 764 766 768 769 771 771 772 772 770
768 765 764 765 766 764 765 766 765 763 764 766 766 763 759 758 758 757 759 759 757 758 758 758 760 763 762 762 762 762 764 765 763 765 766 766 771 775 772 772 771 769 768 767 767 768 771 777 770 755 755 759 755 758 761 758 755 756 756 753 754 765 767 766 771 773 776 782 778 770 768 762 750 746 752 757 757 761 764 765 767 769 771 773 774 774 774 773
767 763 762 764 765 764 764 765 764 763 764 764 761 758 757 757 758 758 759 760 758 758 759 757 759 763 763 762 763 762 765 766 763 765 767 766 771 775 774 775 773 770 769 768 769 770 770 779 778 760 754 761 759 757 758 756 756 758 760 760 758 760 761 763 762 761 768 776 777 777 773 759 746 739 743 749 753 758 762 764 767 771 773 774 776 777 776 776
766 763 761 764 764 763 764 764 763 762 762 761 760 758 759 759 758 758 760 761 759 757 758 758 759 761 763 764 763 763 765 767 765 765 766 765 768 774 776 778 777 773 771 769 768 772 772 777 779 769 762 763 760 757 759 760 760 760 759 757 756 758 762 771 770 758 760 767 768 773 772 759 749 745 742 746 754 758 760 763 768 771 774 776 778 779 779 778
765 762 761 763 763 763 763 762 762 763 761 760 759 759 761 761 759 759 760 759 759 758 758 759 761 761 762 763 762 763 764 766 765 765 766 765 766 771 777 781 780 776 774 771 769 774 777 776 777 775 767 759 757 760 763 764 762 761 761 756 754 756 760 771 774 763 761 764 761 766 770 763 758 756 752 754 759 760 761 764 768 771 775 777 778 780 780 780
764 761 761 763 762 761 763 763 762 763 761 759 759 760 762 762 760 760 760 759 759 759 759 761 762 763 763 763 763 764 764 766 767 766 767 768 770 775 778 779 780 777 774 772 772 777 780 777 777 775 765 755 755 759 761 764 764 764 761 758 759 759 759 764 766 764 767 767 765 772 774 765 763 764 762 764 764 764 766 767 768 773 776 778 779 780 781 781
766 764 762 762 761 761 762 763 761 760 759 760 762 762 763 763 763 762 762 762 762 761 762 763 763 764 765 765 765 764 765 770 770 769 769 770 773 778 779 778 779 775 773 775 775 778 780 777 777 780 775 769 767 765 764 765 764 762 760 761 764 762 762 766 765 766 772 767 764 773 771 763 765 767 766 767 767 767 769 769 770 774 776 778 779 780 781 782
767 765 763 762 761 761 762 763 761 759 760 763 764 764 764 765 767 767 765 765 766 764 765 766 765 765 765 766 768 766 767 771 772 771 772 771 774 779 780 779 778 774 776 780 777 777 779 777 778 784 785 783 778 771 768 767 763 761 762 766 767 765 766 770 769 771 775 769 765 770 766 760 765 768 767 768 769 769 770 772 773 774 776 778 779 781 782 782
767 766 765 762 761 762 765 767 765 762 763 765 766 767 766 766 768 769 767 768 769 767 767 767 766 767 767 768 771 770 768 770 771 772 772 771 774 779 780 780 779 778 781 784 779 778 780 778 778 781 780 777 772 764 763 769 769 767 767 766 767 768 768 770 771 771 770 769 768 765 760 761 764 765 766 769 770 770 771 773 773 774 777 779 780 782 782 782
770 773 774 771 768 765 765 767 766 766 766 768 770 771 770 768 768 769 769 770 770 769 770 770 768 770 771 771 772 773 771 771 772 773 772 771 772 777 781 781 780 782 784 783 780 779 782 781 778 778 777 773 769 765 765 771 774 772 770 768 767 768 770 773 774 769 764 770 769 758 757 764 762 758 761 765 768 769 769 771 771 772 776 778 780 782 782 782
776 779 782 782 778 772 771 773 772 770 769 769 772 774 773 770 771 773 772 771 771 771 772 773 772 771 771 771 773 775 774 774 776 776 775 775 775 777 780 780 780 782 782 780 779 780 783 782 777 776 778 774 770 769 770 773 774 772 771 771 770 769 771 773 774 768 766 771 768 758 759 765 761 755 756 758 762 765 765 767 769 771 774 777 779 781 781 781
782 782 783 784 782 779 780 781 778 774 772 773 774 777 776 774 775 778 776 774 774 773 773 776 776 773 772 773 773 774 777 779 780 780 779 780 780 779 778 779 780 780 779 779 781 783 785 783 777 777 779 775 771 770 770 772 774 772 771 770 770 770 769 770 770 767 765 766 763 761 765 765 761 757 755 756 758 760 761 765 768 771 775 777 778 779 780 781
791 791 790 785 780 781 783 782 779 775 774 776 777 779 780 778 779 780 780 781 780 778 776 777 778 777 775 775 775 777 783 785 784 785 785 784 783 781 779 779 779 779 779 781 783 785 787 785 781 782 783 778 773 770 769 770 771 771 769 767 766 767 768 768 769 768 768 767 765 767 772 770 762 757 756 757 760 760 762 766 769 770 773 775 777 778 779 780
799 800 799 790 783 785 784 781 779 776 775 779 782 783 783 783 782 783 784 786 785 784 783 781 780 780 777 777 781 785 789 790 789 788 789 787 784 783 782 782 782 781 781 782 784 786 788 785 782 785 787 780 773 771 770 769 769 769 768 766 767 768 768 768 768 767 769 772 771 772 772 768 761 756 755 757 761 762 762 764 768 770 772 774 776 777 778 780
802 801 801 794 787 788 786 781 779 778 782 789 790 787 787 786 785 786 788 789 787 787 787 786 784 781 779 782 788 792 793 792 791 789 789 788 786 785 784 784 784 785 784 785 786 787 786 785 783 784 785 780 774 773 774 776 777 773 768 766 767 767 767 766 764 764 765 769 771 770 767 765 763 761 759 758 759 760 760 763 767 770 771 773 774 776 778 780
Wind_Speed
10 9 9 9 9 9 9 9 9 9 9 8 8 9 8 8 8 8 8 7 7 7 7 7 8 8 9 10 10 12 13 12 10 8 11 10 5 6 6 3 11 15 12 10 10 9 9 9 8 8 8 7 5 4 6 5 4 4 5 6 5 5 3 1 2 1 3 2 3 6 7 10 9 1 2 3 9 9 10 9 6 7 4 6 13 20 23 23
10 9 9 9 9 9 9 9 9 9 9 8 8 8 8 8 8 8 7 7 7 7 7 7 8 9 9 10 10 12 13 11 12 11 12 10 7 6 5 7 13 16 13 10 10 10 9 8 8 9 8 6 5 5 6 5 5 6 4 5 6 5 1 2 3 3 4 6 7 8 7 9 9 2 1 5 10 11 11 10 9 9 9 10 16 20 22 22
9 9 9 8 9 9 9 9 9 9 9 9 8 8 8 8 8 7 8 7 7 8 7 8 8 9 9 10 11 11 12 11 9 5 5 4 6 8 8 11 15 15 11 8 8 8 6 6 8 10 7 5 5 5 7 6 5 6 4 6 5 3 2 2 3 5 6 8 9 8 9 8 5 2 2 5 9 12 12 11 12 13 12 13 17 18 20 21
9 9 9 9 9 9 9 9 9 9 9 9 8 8 8 8 8 8 8 8 8 7 8 8 8 9 9 10 11 10 9 9 3 4 1 4 4 9 12 13 15 13 8 7 7 6 5 6 8 8 7 6 5 5 7 6 5 4 5 8 3 2 4 4 3 5 6 8 9 9 9 6 3 2 4 5 7 10 11 10 11 13 15 16 17 17 19 20
9 9 9 9 9 9 9 8 9 9 9 9 9 8 8 8 8 8 8 8 8 7 8 8 7 9 9 10 10 7 6 4 3 4 3 6 5 11 17 16 15 11 8 9 8 6 7 7 8 7 7 5 6 7 6 6 4 3 7 10 6 4 5 4 3 4 6 7 8 8 8 6 4 5 5 7 7 4 4 6 5 8 14 16 17 17 18 18
10 9 9 10 10 9 9 9 9 9 8 8 8 8 8 8 8 8 8 8 7 7 8 7 7 9 9 9 6 5 6 1 4 3 5 4 4 16 19 16 14 11 10 9 7 7 7 8 8 7 6 5 7 7 4 6 6 6 8 7 6 7 7 6 6 5 5 7 8 7 6 6 6 5 3 7 4 4 3 4 4 7 12 15 16 16 16 17
11 10 10 10 10 10 9 9 9 9 8 8 8 8 8 8 8 8 8 7 7 7 7 7 8 8 8 8 4 6 5 3 6 5 4 3 11 19 18 14 13 12 10 9 7 7 7 8 8 5 5 5 6 6 3 6 8 8 7 4 6 7 7 8 7 5 6 9 9 8 6 6 7 2 1 6 2 6 2 5 7 9 12 14 15 14 15 15
11 11 11 11 10 10 10 9 9 9 8 8 7 7 8 8 8 8 7 7 7 7 6 6 6 7 7 6 5 6 1 6 6 4 2 10 16 19 16 12 11 11 10 8 6 6 6 7 5 4 6 3 4 6 4 6 9 10 8 5 6 5 6 7 6 7 8 8 7 7 7 5 4 1 1 5 4 5 3 7 10 11 12 13 14 14 14 14
11 11 11 11 11 10 10 9 9 9 8 8 7 7 7 7 7 7 7 7 7 6 5 5 4 5 6 5 8 3 4 6 4 2 7 14 17 18 13 10 11 10 9 6 4 6 6 5 3 3 4 3 4 5 5 7 6 6 8 6 6 6 6 6 6 7 6 4 3 4 5 2 1 2 3 3 5 5 4 7 11 13 14 13 13 14 14 14
11 11 11 11 11 10 9 9 9 8 8 8 8 8 7 7 7 7 6 6 6 5 5 5 3 4 4 6 8 1 5 4 1 5 9 16 17 16 10 9 11 9 8 6 5 5 3 1 2 1 2 3 4 3 5 6 1 1 6 7 8 8 6 5 5 5 4 3 3 4 3 3 3 5 3 5 5 5 6 8 11 12 14 13 13 14 13 14
11 11 11 10 10 9 8 8 8 8 9 9 9 8 8 7 7 6 6 5 4 5 4 5 4 3 5 8 6 2 4 2 3 6 9 16 16 12 8 7 9 8 7 6 6 4 0 1 1 2 2 3 5 4 4 4 3 3 6 7 9 7 3 4 3 3 4 3 3 5 2 4 5 3 3 6 5 6 7 9 11 12 12 13 14 14 12 12
11 11 10 9 8 8 7 7 8 8 9 9 9 9 9 8 7 6 5 5 4 5 4 4 4 4 5 7 2 4 3 1 3 7 9 12 11 8 5 6 7 6 5 6 6 4 1 0 3 4 1 2 5 5 3 1 4 5 6 7 6 5 4 3 3 3 4 2 1 5 4 7 6 3 6 5 4 6 7 9 11 11 11 13 13 13 12 12
11 10 10 8 7 7 7 6 7 8 8 9 9 9 9 8 7 6 5 4 4 4 4 3 3 3 6 3 4 3 2 2 5 7 9 10 8 6 5 4 4 4 3 3 3 3 4 3 5 4 2 3 2 1 1 2 6 6 5 6 4 6 6 5 4 5 4 2 1 6 6 7 7 5 5 4 4 6 7 8 9 10 10 11 12 11 12 13
12 10 9 8 6 6 6 6 7 7 7 8 9 9 9 8 7 6 5 4 3 3 3 3 2 4 5 2 5 2 1 3 6 7 9 9 7 6 5 4 4 4 2 1 2 1 4 4 6 4 2 4 1 1 5 5 5 4 4 4 4 5 6 9 4 5 6 3 1 7 6 4 7 6 4 3 4 6 7 8 9 9 9 10 11 11 11 12
11 10 9 7 6 6 6 7 7 7 7 8 9 9 9 8 6 5 4 3 4 2 1 2 2 4 4 4 4 2 1 3 6 7 9 10 8 7 7 6 5 4 3 2 0 1 2 4 6 4 2 2 3 5 5 5 5 4 4 4 4 4 6 10 5 3 4 4 1 6 7 3 6 5 4 2 4 6 6 7 9 9 10 10 10 10 10 11
11 10 9 7 6 6 6 7 7 7 7 6 8 8 6 5 4 4 4 3 3 1 0 3 3 5 4 4 4 2 2 3 4 5 8 9 6 5 8 8 6 5 4 2 2 2 2 4 4 3 2 4 5 5 4 4 5 5 4 2 3 4 4 8 7 6 4 3 4 5 7 2 5 5 4 3 4 6 6 6 8 8 9 9 9 9 9 10
10 9 8 7 7 7 7 7 7 7 6 5 6 4 3 3 3 3 2 2 2 2 2 4 3 5 2 4 4 4 3 2 3 3 7 8 5 6 8 8 6 6 6 4 4 5 3 4 2 2 3 3 3 4 4 5 5 5 4 1 2 3 2 5 7 6 2 2 3 2 7 3 3 3 3 4 5 6 6 6 7 7 8 8 8 9 10 10
10 9 8 8 7 7 7 6 6 6 5 4 3 1 1 0 1 1 2 2 1 2 4 4 4 4 3 5 3 3 3 1 3 4 6 8 7 6 5 4 4 7 8 6 5 6 4 3 3 3 4 3 3 5 5 2 1 3 4 3 3 3 4 2 5 5 3 2 2 3 6 2 1 3 3 4 5 6 7 5 5 6 7 8 8 9 11 11
11 9 7 7 7 7 7 6 6 5 4 3 1 1 1 2 2 2 4 4 3 3 1 3 4 3 2 4 2 3 1 2 4 5 7 9 7 6 4 3 4 6 7 5 6 5 3 3 4 4 4 3 1 3 4 4 3 2 3 3 4 4 4 1 5 5 4 3 4 2 4 2 0 2 4 4 4 7 7 5 4 5 6 8 8 9 10 11
10 8 6 6 6 6 6 5 4 4 3 1 2 3 2 1 1 3 5 6 6 4 4 1 3 4 1 3 1 2 2 5 5 6 9 9 9 8 6 4 6 7 6 3 4 3 2 4 5 3 0 2 2 2 4 4 3 4 4 5 4 4 4 4 4 4 4 5 3 1 4 4 1 1 3 5 5 7 8 7 7 7 7 7 8 10 10 10
9 6 6 5 6 6 5 5 3 3 2 2 4 4 1 4 3 2 2 4 5 3 5 3 4 6 4 2 2 2 2 6 6 7 9 9 9 9 6 5 7 6 4 1 2 2 3 5 2 1 4 3 1 1 1 2 2 5 6 6 5 6 4 5 4 3 2 5 2 2 6 6 3 1 3 6 6 8 9 9 9 9 9 8 9 10 10 10
8 6 5 5 5 5 4 4 2 1 0 3 5 4 3 5 4 3 4 4 3 2 4 4 4 6 5 4 4 3 4 6 8 9 8 8 10 7 5 6 8 4 5 4 3 4 6 5 4 5 2 2 2 3 3 3 3 5 6 6 5 4 3 4 5 4 1 4 3 0 6 7 4 4 3 6 7 7 7 8 8 8 9 9 9 10 10 10
8 5 4 5 4 3 3 3 2 2 2 3 4 1 3 3 3 3 5 5 1 3 3 4 5 5 4 3 4 5 6 4 7 10 10 9 8 5 4 5 5 3 6 7 5 4 4 3 7 5 2 4 4 4 5 4 4 6 5 6 4 2 3 3 6 5 2 2 4 4 6 7 6 6 6 6 6 4 4 5 6 6 8 9 9 9 9 11
7 4 4 4 3 2 2 2 2 3 4 4 4 1 2 3 4 4 5 5 1 3 2 2 3 4 2 2 4 8 4 1 3 7 11 10 5 3 4 3 3 4 5 5 5 6 0 7 6 3 3 5 4 6 7 5 5 5 5 7 4 2 4 4 2 3 3 3 3 6 7 7 6 8 7 6 5 5 5 6 6 6 7 7 8 9 9 10
7 4 4 3 3 2 1 2 2 3 5 6 4 1 2 6 5 5 5 4 2 4 3 3 2 2 2 2 5 5 2 2 1 4 9 9 4 3 3 1 3 4 4 4 5 5 2 6 2 3 4 5 5 6 7 6 4 5 7 9 7 3 4 4 1 3 5 5 2 4 7 4 3 5 5 5 6 7 7 6 6 6 6 7 8 9 9 10
6 4 4 4 3 2 1 1 2 2 5 6 2 1 5 8 5 5 5 3 4 4 4 5 3 3 4 4 5 3 4 4 2 3 6 5 3 3 3 3 3 0 3 3 4 2 3 4 2 3 4 5 6 6 6 6 7 4 6 8 8 6 5 5 4 4 6 3 2 2 7 3 3 5 4 4 6 7 7 6 4 3 4 6 6 7 7 8
7 3 4 5 4 5 2 1 2 3 4 2 1 3 7 8 2 6 4 3 4 2 2 3 1 2 2 2 4 4 2 5 5 4 4 4 3 3 4 4 3 2 2 3 3 1 4 5 4 4 5 6 7 5 5 7 8 1 3 6 8 7 6 6 6 5 5 3 1 5 5 5 5 4 5 4 5 7 8 6 5 3 2 3 4 4 5 6
8 3 5 6 6 7 4 3 3 4 2 3 2 6 8 4 5 5 5 2 4 0 2 3 2 1 1 2 5 5 1 3 3 4 4 4 4 4 5 4 2 3 4 4 2 4 4 4 5 5 5 6 5 1 3 8 7 1 3 3 5 5 6 5 6 6 3 3 5 6 4 5 6 3 5 5 7 8 7 4 2 2 2 0 2 4 5 6
10 4 6 7 7 8 7 5 5 4 1 2 5 8 7 4 6 4 5 1 2 2 1 2 3 3 2 4 5 4 2 1 1 4 6 5 4 3 3 1 2 2 4 5 4 2 2 2 2 5 6 5 0 5 1 7 4 2 3 4 4 5 4 5 6 6 3 5 8 4 4 5 6 4 5 5 5 4 3 1 1 2 3 3 3 4 6 6
13 5 6 7 6 6 6 6 6 4 1 3 7 7 4 6 4 5 4 2 1 3 2 1 3 2 4 7 5 4 4 2 3 4 6 5 5 4 1 1 3 4 4 6 6 1 3 2 0 5 6 2 3 5 2 2 1 3 6 6 6 6 5 5 5 4 4 7 5 3 4 5 6 4 3 1 1 2 3 2 3 4 5 6 6 6 6 6
14 4 6 8 6 5 5 3 4 4 2 4 6 4 5 5 4 5 4 1 1 4 3 3 2 1 5 6 4 5 5 4 3 5 5 5 6 6 3 3 3 4 5 5 5 3 4 6 4 4 5 2 2 3 2 1 4 5 6 6 6 5 4 5 5 4 6 7 2 5 4 5 7 3 2 3 3 3 3 3 5 7 7 7 7 7 7 6
14 4 5 7 7 6 5 1 1 3 3 6 5 4 5 4 5 4 2 2 3 3 3 2 2 2 4 4 4 5 4 4 3 2 2 3 4 3 2 2 1 4 5 3 2 3 5 5 4 4 5 6 7 5 4 5 6 6 7 6 6 6 5 6 6 5 6 3 4 5 3 5 7 1 5 4 3 3 2 3 5 7 8 8 7 7 6 6
14 4 5 6 7 7 6 4 4 5 4 5 5 5 4 5 5 1 2 4 1 2 2 1 2 2 4 4 5 3 2 3 2 2 1 2 3 2 2 1 2 5 4 1 2 4 4 4 6 5 5 6 9 7 4 5 7 8 7 6 7 6 6 7 6 6 6 2 5 4 2 5 6 1 5 4 3 2 1 2 3 5 6 6 6 7 6 6
14 4 4 6 6 6 5 6 5 4 4 5 5 5 5 6 2 1 2 3 3 2 2 1 2 3 2 2 4 2 1 3 2 2 3 3 4 3 3 3 0 4 4 3 3 4 5 3 5 3 3 4 8 8 5 4 5 7 6 6 7 6 6 7 6 6 7 2 5 5 3 5 5 2 4 4 4 2 1 2 1 2 3 4 5 6 7 7
13 4 3 3 3 4 4 5 3 3 4 5 5 5 5 5 2 3 3 2 3 3 3 1 4 5 4 4 4 2 1 2 3 1 1 2 1 1 2 3 2 2 3 4 1 1 7 4 4 3 2 3 5 4 5 6 6 5 4 7 7 5 6 5 3 3 5 4 2 4 4 3 0 4 5 4 5 5 4 3 3 3 4 4 5 6 7 7
9 3 2 2 1 3 4 3 3 5 4 4 5 6 5 2 1 2 2 1 1 2 4 5 5 5 5 4 3 3 1 2 1 2 1 1 1 2 2 3 3 2 3 3 1 2 6 3 6 5 3 2 2 2 3 6 5 2 5 7 3 3 6 6 2 2 1 7 7 5 6 4 3 4 6 7 7 7 6 5 5 5 5 5 6 7 7 7
8 3 2 3 1 4 2 2 5 5 4 5 6 4 2 1 1 0 1 0 1 1 4 6 3 3 4 4 4 5 2 1 2 2 2 3 2 2 3 2 3 3 3 3 2 1 4 5 3 3 2 4 1 3 4 5 5 4 5 4 1 2 5 6 5 3 4 8 7 6 9 8 5 4 7 9 9 8 8 7 6 5 5 6 7 7 7 8
7 3 3 3 6 5 2 4 5 5 4 5 5 3 2 2 1 1 0 0 2 3 6 6 2 2 4 4 4 5 2 3 3 2 3 3 2 1 2 2 3 3 3 3 3 1 3 7 3 3 1 3 3 4 5 5 5 7 4 1 2 5 6 5 6 7 8 8 7 8 10 9 9 5 8 11 11 11 9 8 8 6 6 6 6 7 8 8
5 4 4 4 10 4 4 4 3 5 4 6 6 3 3 3 3 2 0 2 4 5 5 4 2 2 3 3 2 3 2 3 1 2 3 2 2 1 0 1 2 3 2 3 3 1 1 5 2 4 3 1 3 6 7 6 6 5 4 4 5 5 6 6 6 6 8 8 8 9 9 8 7 5 9 12 12 13 11 9 8 7 6 5 5 6 7 8
3 4 3 6 11 3 5 3 4 5 5 5 4 2 3 4 5 3 0 2 3 3 3 3 3 3 4 3 2 2 2 3 3 3 2 2 2 2 2 1 1 2 2 2 2 0 2 3 4 3 4 3 5 4 4 5 3 5 6 7 7 5 4 6 7 7 7 9 8 8 9 7 3 1 7 11 11 12 11 10 8 7 6 5 6 6 6 7
2 3 3 6 11 1 5 4 5 4 4 3 3 3 2 1 4 5 2 2 2 1 2 3 3 3 3 3 3 3 3 4 4 4 3 3 3 2 2 2 3 2 1 4 3 1 2 3 5 5 4 6 2 3 4 6 5 5 6 7 8 7 6 7 9 8 7 9 8 8 10 6 2 2 3 7 10 10 10 10 8 7 7 6 6 6 6 6
4 3 2 7 10 1 6 5 3 2 4 3 1 2 2 0 3 4 3 3 3 1 1 2 3 3 4 4 3 3 4 4 4 4 3 3 2 1 3 2 3 3 3 4 0 2 2 3 6 7 7 8 2 5 2 3 4 6 6 7 7 7 8 9 10 8 7 8 7 8 10 4 4 5 3 6 7 7 8 8 8 8 7 6 6 6 6 6
3 2 3 8 9 3 7 5 4 3 4 1 1 1 2 1 3 3 3 4 2 3 3 3 3 3 3 3 3 5 5 4 4 3 2 3 2 4 4 2 2 4 4 3 1 3 0 3 6 7 7 8 4 2 3 2 4 7 7 6 6 7 8 8 8 7 7 9 8 8 10 4 4 4 4 4 4 6 6 7 8 8 6 6 6 6 5 6
2 2 2 7 7 3 7 5 5 6 3 3 3 3 3 1 0 1 2 1 1 1 3 2 2 1 1 2 3 5 4 4 5 3 2 3 3 5 3 2 2 3 2 2 1 1 2 4 4 6 7 7 6 6 5 6 6 7 6 4 4 6 7 5 6 6 7 11 11 10 10 4 4 3 2 2 3 5 6 6 7 7 6 6 5 5 5 5
2 2 1 4 6 1 3 2 3 4 2 4 4 4 4 2 2 2 1 2 3 2 1 1 1 1 2 3 3 4 4 4 4 2 2 3 4 4 2 2 2 1 3 5 4 2 4 5 4 6 7 6 7 6 3 2 4 5 4 4 4 6 7 6 7 9 8 9 8 9 10 3 5 6 5 4 5 6 7 7 6 6 6 5 5 4 4 4
2 1 0 1 4 3 1 2 2 3 2 3 3 3 3 4 4 3 2 2 3 2 1 1 1 2 3 4 5 5 5 5 4 3 4 5 5 4 2 1 1 2 4 4 3 2 4 5 6 9 10 8 9 9 4 6 7 7 6 7 6 5 7 7 7 9 9 8 9 10 11 8 6 9 9 8 8 8 8 9 9 7 7 6 4 3 3 3
1 2 3 1 1 2 2 3 3 1 0 1 2 1 2 3 4 2 1 2 2 1 0 0 1 4 4 5 6 6 5 6 5 5 5 4 4 5 3 2 2 3 2 1 1 2 5 6 8 11 12 11 13 13 9 8 10 12 12 11 10 8 8 9 9 10 10 9 10 10 9 10 10 9 10 10 9 9 9 10 10 9 8 7 5 4 3 4
2 1 3 2 2 2 2 4 5 3 2 1 1 1 0 2 2 2 2 2 1 0 1 2 2 2 3 3 4 5 5 6 6 5 4 3 4 4 4 5 4 1 3 3 1 2 5 7 8 10 13 13 13 13 11 10 11 13 14 14 13 12 12 12 12 14 13 11 11 11 10 11 9 8 8 8 8 10 10 9 9 8 8 8 7 7 6 5
3 2 2 2 2 3 4 4 4 3 3 2 1 2 1 0 2 3 3 1 2 1 2 2 3 1 1 2 5 5 4 4 4 4 3 2 3 4 4 5 5 4 4 2 1 1 4 5 6 9 13 14 14 14 13 13 13 14 15 15 15 15 15 14 14 15 16 16 15 14 12 11 8 9 11 6 4 7 8 7 8 9 10 9 8 8 7 6
3 3 3 2 1 4 4 3 2 1 1 2 1 2 2 2 3 4 4 4 1 2 2 1 3 3 2 1 2 1 3 3 1 2 1 1 2 3 4 2 1 4 4 2 0 1 2 3 2 6 11 12 13 14 14 14 15 16 16 17 16 16 16 15 13 13 13 14 14 12 11 9 8 11 12 5 1 4 7 9 10 9 10 10 9 8 7 6
4 2 3 3 1 3 3 2 2 2 1 3 2 3 3 3 4 4 5 6 5 4 4 3 2 2 1 3 4 5 6 5 4 4 3 3 1 1 2 2 2 2 3 3 1 2 3 5 4 6 9 10 11 13 14 14 16 18 18 17 17 16 15 13 12 12 12 12 12 12 12 9 7 10 12 8 5 7 10 10 9 8 9 10 10 8 8 7
5 1 3 4 1 3 3 1 2 1 1 4 4 4 4 4 3 1 2 4 5 6 6 5 3 1 2 3 6 6 5 5 5 4 4 4 3 4 3 3 3 5 4 3 2 2 4 6 6 7 9 9 8 9 9 9 12 12 10 10 13 15 15 15 14 14 15 13 11 11 10 6 4 4 8 9 10 11 10 7 6 7 9 9 9 8 8 6
Wind_Direction
320 316 313 312 313 313 307 299 299 301 299 299 301 302 304 305 307 309 308 308 311 304 302 306 306 308 306 307 309 308 316 315 293 256 236 246 252 226 233 196 175 163 151 159 172 179 181 194 187 185 198 187 205 189 168 197 202 214 226 233 239 231 230 239 237 288 337 337 350 347 2 340 331 268 219 211 213 204 176 174 147 139 106 89 122 133 141 146
321 318 314 314 314 311 306 303 302 305 303 301 300 299 301 303 304 304 304 304 304 301 300 302 306 309 307 311 311 312 322 304 274 257 241 246 252 230 198 163 165 158 156 172 182 190 194 192 179 187 202 188 183 174 174 180 201 228 236 235 242 242 248 28 319 318 315 308 323 332 346 338 327 318 209 215 196 183 179 171 165 154 129 124 133 138 144 148
322 317 314 312 313 312 313 311 308 307 304 303 301 299 299 298 299 297 299 298 297 299 297 302 306 308 311 313 311 320 322 292 264 236 218 245 243 213 172 160 163 160 167 182 182 192 202 183 178 193 205 201 187 185 191 177 194 225 238 239 240 261 299 309 280 285 296 308 314 321 330 332 341 343 249 230 193 184 191 177 176 170 149 144 143 144 149 152
319 317 315 312 311 311 312 308 307 306 304 305 301 299 300 297 297 296 296 292 293 296 297 302 302 307 313 311 314 324 308 273 231 101 162 291 261 193 166 157 160 162 172 173 166 175 179 171 182 200 211 202 180 198 202 177 192 206 220 249 269 335 284 266 256 278 295 307 308 312 317 331 20 296 259 237 197 195 203 183 182 178 156 149 149 151 154 156
318 316 314 310 308 308 306 306 307 306 305 305 301 299 299 296 294 291 291 288 288 291 295 297 299 310 312 313 322 312 281 259 110 67 327 300 261 179 162 155 157 159 164 165 158 165 176 178 184 197 214 204 175 200 202 178 210 231 224 254 287 292 273 275 288 296 304 301 294 301 313 338 333 258 245 235 212 196 196 166 174 179 157 152 153 154 158 160
314 311 309 308 306 307 308 308 306 305 306 305 303 301 296 294 290 286 289 289 287 288 291 296 303 310 313 325 334 268 260 1 71 354 339 328 177 161 157 154 154 155 164 167 163 178 181 183 191 194 207 208 192 200 186 173 212 245 230 242 266 269 275 284 290 294 299 290 286 303 323 326 294 256 226 234 226 44 63 124 127 155 151 151 152 155 161 162
314 310 309 308 305 306 307 306 306 307 306 305 306 305 298 293 288 286 289 288 288 289 288 299 306 310 323 336 315 242 249 45 46 343 346 120 142 148 152 151 153 160 171 175 176 189 183 192 203 194 202 205 201 199 172 187 212 245 251 248 260 268 273 274 282 286 284 283 287 298 301 290 280 284 210 223 168 54 86 139 128 139 147 151 152 158 163 162
315 310 309 306 303 304 305 306 307 307 306 305 305 303 299 295 291 288 283 282 285 286 286 293 303 318 337 331 276 233 174 39 20 346 135 142 141 144 146 147 160 171 184 188 185 194 189 196 192 191 211 184 184 194 183 210 214 233 256 264 263 264 265 270 281 281 279 280 284 279 271 276 284 311 239 208 136 84 122 147 141 141 149 154 156 161 163 163
311 307 305 303 304 305 304 305 306 306 305 305 305 304 302 298 295 288 281 280 281 282 285 287 295 333 342 302 269 240 68 17 356 50 149 152 147 148 148 154 171 181 188 189 194 205 197 194 168 211 236 128 172 193 187 225 212 212 248 262 262 264 270 286 289 276 272 273 281 259 245 229 182 218 202 168 123 109 126 145 148 149 155 159 160 163 165 165
309 308 306 305 305 305 306 307 309 310 305 304 304 302 300 299 296 291 285 279 276 276 276 285 300 341 322 270 266 232 67 12 55 109 153 161 153 155 163 166 175 186 185 183 200 207 202 162 117 245 261 139 186 195 191 237 291 199 256 271 269 272 284 293 282 261 249 241 246 237 211 128 169 218 179 126 132 144 145 147 154 158 159 162 162 164 168 168
311 310 307 305 302 304 310 312 313 309 304 303 299 298 298 299 296 288 285 279 270 269 268 286 304 338 299 266 279 81 86 26 111 115 151 166 163 166 175 174 185 197 185 183 195 196 191 76 60 251 217 151 183 190 197 251 319 278 274 277 260 254 256 254 236 220 222 186 210 232 184 139 185 216 77 104 151 168 160 157 163 166 160 162 162 163 171 173
312 310 305 300 301 307 312 314 309 303 302 300 297 298 295 294 295 285 283 281 265 260 260 283 314 347 295 260 318 74 108 93 142 127 141 167 177 181 187 187 201 211 197 195 185 185 232 331 289 270 140 167 194 183 181 263 283 268 273 276 249 203 176 171 150 165 197 142 191 244 200 176 179 110 73 103 160 178 175 167 166 169 161 161 162 165 176 179
312 308 302 299 303 306 309 307 301 301 302 302 301 299 296 295 293 283 276 272 264 266 272 301 332 319 279 250 80 91 136 139 153 143 145 165 177 182 191 193 197 210 218 205 149 182 238 254 286 300 354 250 206 109 247 244 260 256 245 264 252 194 160 108 126 157 151 89 283 246 221 178 148 98 84 116 168 182 183 174 170 169 162 163 165 172 179 180
310 305 302 303 303 302 304 300 297 299 302 304 303 301 301 295 287 281 270 260 254 261 279 325 348 274 263 91 101 178 147 133 167 165 165 169 164 160 173 181 182 194 212 197 78 288 245 244 267 269 257 262 315 329 249 218 226 239 224 234 238 207 134 96 107 164 146 100 256 243 243 174 126 103 97 120 179 193 188 177 175 171 167 169 169 177 180 178
308 302 299 299 298 294 293 294 294 298 302 306 305 305 302 287 279 266 254 249 249 250 286 296 308 270 245 117 123 211 154 162 177 181 182 178 172 159 166 179 182 190 198 217 264 345 222 226 249 248 193 227 257 247 224 196 199 222 226 199 208 215 122 103 82 67 115 110 188 242 250 182 118 100 102 130 193 203 200 182 181 179 174 176 175 182 183 177
307 298 294 291 289 284 282 289 294 299 305 310 309 311 302 278 259 242 235 227 238 194 96 258 239 264 267 112 127 184 182 177 161 174 186 189 195 154 149 163 170 185 195 207 213 193 210 229 251 295 257 204 227 238 215 198 188 204 237 193 189 218 150 129 105 71 79 126 174 232 260 235 108 101 109 153 201 205 209 188 183 186 179 184 186 186 186 177
305 295 290 285 281 277 277 282 291 300 308 315 313 318 312 269 222 215 210 199 230 175 225 272 261 263 281 108 151 166 146 139 115 147 176 189 194 150 149 159 157 167 172 162 185 195 206 226 226 242 240 223 235 247 228 215 186 187 226 187 178 235 210 151 128 96 65 212 171 198 259 281 96 129 136 166 201 209 214 197 187 192 186 192 195 193 191 184
305 294 284 278 275 271 271 276 287 299 311 314 299 311 32 61 128 160 167 144 171 206 230 260 259 248 161 146 175 122 107 146 139 145 163 172 179 175 177 174 150 155 164 159 172 194 195 209 237 231 214 209 219 233 234 233 203 194 203 198 177 200 238 185 120 79 31 240 188 197 239 260 95 195 171 170 199 213 217 207 198 200 198 200 202 203 200 193
308 295 281 272 268 264 264 270 284 298 312 313 255 160 122 120 117 205 202 189 211 239 232 181 218 275 118 142 122 46 72 165 162 163 161 164 174 189 199 197 179 177 189 185 170 189 214 208 225 234 213 194 203 273 304 353 348 279 229 241 213 190 212 146 83 55 17 271 219 218 254 271 345 192 167 174 197 217 217 208 214 214 211 210 208 211 208 203
311 296 279 266 257 256 259 267 284 302 307 299 171 201 219 227 214 192 200 216 232 286 321 211 240 283 295 115 65 15 146 168 178 169 164 168 171 178 185 198 201 204 222 213 152 159 257 238 223 238 335 57 44 335 332 346 329 280 247 240 235 227 206 128 96 70 13 293 220 159 287 265 274 25 155 175 193 216 217 210 216 220 221 219 216 216 213 210
319 298 275 257 249 251 253 262 279 300 308 162 193 228 330 357 341 5 326 237 211 260 283 277 287 276 279 322 317 322 172 173 166 154 159 170 181 184 175 193 214 209 196 166 123 139 241 245 213 43 27 48 102 187 279 290 261 241 238 231 223 231 209 114 99 97 38 292 218 147 272 250 230 249 162 171 199 214 215 214 218 221 226 228 226 224 219 214
327 299 270 247 246 246 244 258 261 279 72 150 210 245 41 27 352 333 309 275 198 208 257 249 261 266 265 267 261 269 244 180 154 152 159 176 196 200 165 192 228 200 141 171 197 183 223 235 119 87 61 110 152 189 204 231 234 226 231 235 226 219 198 126 126 135 97 285 261 191 277 263 242 242 201 189 206 207 208 220 225 225 228 229 231 230 225 218
332 301 267 249 244 240 241 247 240 223 176 184 231 283 61 22 334 271 255 280 243 167 210 220 235 240 216 213 194 210 227 184 163 161 165 189 201 212 199 197 224 186 167 201 221 230 228 148 109 104 145 170 166 180 202 212 216 222 223 230 225 176 219 202 145 145 144 287 296 305 280 268 244 228 216 201 206 194 191 223 235 241 241 238 241 239 231 225
337 300 264 253 233 231 242 225 241 230 194 209 244 21 31 324 314 260 243 277 260 148 183 210 249 243 189 111 170 201 221 177 193 151 161 197 187 175 222 206 208 204 188 198 229 257 254 90 102 140 188 207 189 176 204 225 208 206 225 243 242 167 239 266 122 148 194 188 269 285 266 255 233 225 215 184 193 208 201 214 222 231 242 247 254 252 243 236
342 299 263 254 229 217 233 225 234 224 198 208 222 216 317 318 306 251 245 260 178 139 161 176 218 212 132 116 167 208 245 172 218 123 161 206 200 164 191 189 237 209 148 172 229 249 93 86 137 195 197 217 212 195 207 236 236 200 209 233 251 240 232 255 237 234 240 202 172 295 275 250 184 212 210 169 189 202 193 201 209 209 218 230 242 246 247 244
341 302 259 245 223 165 166 209 166 196 223 208 190 291 316 322 297 218 243 250 155 134 166 179 188 157 147 166 162 206 235 168 88 100 169 208 232 240 201 166 231 238 113 190 242 267 96 113 190 216 212 210 222 224 193 218 251 221 184 206 227 235 224 232 231 235 259 248 124 280 278 270 192 199 170 160 197 193 176 174 174 188 213 227 237 240 246 247
339 293 247 235 204 174 187 330 148 223 244 178 107 319 324 322 237 181 233 223 140 126 186 160 123 122 135 159 175 217 215 123 114 136 178 208 197 242 234 177 186 143 140 230 234 144 127 150 180 216 230 220 229 226 175 211 247 251 120 191 210 215 213 222 232 239 270 303 204 216 257 277 256 221 141 161 222 209 188 166 147 157 193 237 263 264 266 265
339 277 240 231 213 212 244 295 261 252 284 55 359 318 327 309 182 188 249 194 112 165 196 116 88 124 133 158 206 242 10 108 165 132 139 198 195 236 237 211 225 142 161 252 254 124 156 192 198 218 237 237 239 69 142 218 238 50 80 206 209 208 213 218 241 252 260 289 257 213 211 260 257 214 153 186 224 212 190 163 128 118 112 136 295 297 294 285
343 278 240 231 226 233 243 254 264 270 355 8 325 324 319 224 189 230 258 193 110 186 150 105 144 160 173 178 193 223 234 244 299 100 137 181 198 256 263 231 269 168 173 252 290 101 158 217 241 244 249 249 298 52 52 233 230 92 142 186 184 189 206 221 250 264 233 256 268 211 180 266 269 219 189 194 210 202 165 99 14 32 32 14 357 327 309 298
347 286 235 225 225 238 238 234 245 254 276 312 322 326 274 200 211 242 219 205 151 151 134 176 177 173 200 191 172 177 193 158 77 131 157 164 179 204 332 30 246 235 201 237 265 257 138 133 188 249 256 298 62 70 28 271 171 147 180 190 190 193 204 222 245 270 255 251 253 156 167 264 270 235 200 137 67 13 351 334 346 352 350 357 355 338 329 321
350 293 227 221 218 220 228 209 204 223 269 320 327 299 225 205 241 238 195 187 182 152 160 166 147 189 206 194 157 147 163 127 121 185 176 159 180 185 189 199 212 232 226 221 229 207 185 192 180 202 227 229 169 156 117 164 185 193 208 215 219 215 214 232 223 217 251 254 158 116 155 233 253 239 116 91 68 33 336 324 335 332 337 351 349 340 341 335
350 301 222 225 222 221 237 268 182 239 289 322 313 248 224 226 233 229 163 175 200 164 156 125 88 144 178 158 115 129 154 120 119 207 187 186 193 166 210 249 247 237 237 216 198 221 224 202 146 149 188 209 223 205 156 175 199 215 227 227 236 236 226 240 238 229 246 242 110 117 162 227 250 214 101 107 85 58 359 336 331 329 335 343 345 346 350 348
350 316 224 228 229 231 251 275 261 260 299 312 276 233 238 244 231 220 158 182 162 67 95 71 67 141 189 172 118 116 155 108 112 167 144 230 209 122 89 4 311 265 267 289 266 264 237 159 147 172 170 194 228 222 192 193 198 214 228 230 242 247 242 245 246 248 253 201 108 124 182 241 246 124 90 96 85 63 27 3 340 336 338 341 351 358 6 11
348 321 233 240 244 242 260 276 261 256 287 281 244 218 232 241 231 94 190 166 84 86 109 92 148 144 160 145 92 67 170 104 82 188 182 212 209 157 127 105 191 261 263 264 268 278 265 195 158 178 128 169 222 242 281 287 218 221 236 243 250 253 254 260 261 262 265 227 123 140 188 251 247 120 89 99 108 107 97 81 54 9 2 4 11 15 20 24
346 326 260 248 244 259 282 286 249 208 245 257 233 218 227 232 203 194 199 127 116 159 138 154 203 174 136 111 85 32 342 83 93 204 221 220 215 158 127 97 73 273 256 249 221 250 266 257 103 86 81 168 225 253 289 283 246 220 234 245 253 258 253 263 291 309 302 285 212 187 221 261 142 116 121 133 138 136 128 120 116 84 59 45 36 34 31 30
345 319 271 175 181 301 297 270 191 186 235 248 229 225 230 255 249 197 165 100 171 173 161 178 209 207 173 153 138 114 36 15 129 210 173 104 92 96 105 72 46 313 279 271 229 202 255 246 105 113 139 140 293 293 229 257 264 200 231 244 251 288 266 259 247 102 285 270 259 236 241 234 165 163 156 154 155 148 145 138 120 91 74 65 49 39 37 39
338 292 203 141 14 319 288 169 166 196 240 242 237 245 242 263 282 191 92 86 238 238 219 206 203 231 200 176 168 141 133 194 183 229 197 147 127 100 128 106 45 340 328 308 275 260 279 268 157 170 184 110 60 275 214 234 266 251 244 242 168 246 256 250 255 234 229 257 257 234 239 239 236 209 158 164 170 158 154 144 125 106 86 72 57 46 41 45
325 265 173 87 359 328 181 144 172 215 245 237 235 248 245 212 161 151 95 258 232 223 236 232 208 245 226 202 175 138 160 217 174 226 232 182 162 92 154 148 93 30 352 299 265 80 288 268 209 160 223 126 144 232 224 197 230 262 287 293 222 250 245 227 246 255 250 258 258 243 239 241 252 226 162 177 182 163 157 150 135 117 94 76 64 53 44 45
298 240 182 48 2 343 165 158 203 233 243 237 236 223 215 195 141 131 245 247 234 223 234 238 205 221 226 223 196 144 192 255 208 234 243 204 161 116 210 225 118 77 20 301 286 68 245 265 243 130 125 164 204 227 240 211 195 227 259 245 237 264 269 251 250 258 260 262 263 261 251 245 258 229 180 187 181 166 162 153 137 116 97 81 67 56 45 46
273 259 174 41 4 6 155 179 227 237 232 240 265 229 182 181 157 141 354 269 243 236 250 232 204 222 210 204 244 203 200 256 253 250 240 191 161 141 111 338 292 48 42 271 271 291 222 247 258 198 144 227 241 222 272 288 235 223 235 234 230 236 260 265 256 250 257 264 263 267 263 259 280 230 196 191 173 164 162 151 139 123 106 88 73 62 52 53
257 262 151 30 357 17 167 216 223 237 238 237 272 226 176 184 177 155 142 250 258 296 304 259 226 235 210 204 228 207 205 237 237 246 236 199 203 190 97 33 308 332 289 236 220 251 271 245 257 262 237 245 255 71 3 334 322 286 267 255 250 246 250 258 254 244 244 261 266 268 270 275 25 39 181 165 155 156 155 148 140 129 116 102 84 71 61 59
248 258 116 14 350 181 195 236 203 227 253 237 259 193 129 36 203 168 157 206 230 211 240 248 238 236 224 234 244 213 226 242 227 239 244 212 200 132 80 39 292 284 279 269 174 72 341 271 258 262 258 262 323 66 44 310 300 285 276 273 273 263 254 254 259 260 254 260 271 272 270 277 64 46 69 122 134 139 143 146 142 132 121 112 100 88 78 69
267 305 87 11 350 188 208 243 197 211 237 199 79 132 117 208 209 189 185 202 218 209 208 206 211 232 227 234 246 226 227 239 232 244 249 202 133 82 62 28 262 242 256 266 135 111 212 258 256 257 255 260 255 144 159 189 246 258 249 252 268 271 270 270 276 285 270 261 265 263 260 249 93 64 58 92 115 125 135 147 146 137 127 123 115 102 93 83
320 304 100 11 359 196 220 250 226 228 209 160 185 171 139 88 313 220 208 200 350 230 220 201 181 225 194 195 239 230 216 228 226 226 244 216 137 88 53 16 278 243 271 335 8 135 242 252 254 263 260 249 233 217 203 196 217 244 249 249 271 277 279 281 278 274 261 261 262 259 261 252 114 118 143 130 137 148 149 149 148 144 141 137 125 111 103 96
298 248 176 22 24 143 225 298 284 261 195 176 199 178 164 148 71 14 338 58 32 336 271 120 122 217 183 179 219 217 208 239 239 201 206 200 142 115 75 17 312 265 57 25 348 267 259 268 260 263 263 253 250 250 246 243 240 238 245 252 260 264 263 264 264 256 251 260 259 253 261 254 128 150 183 172 168 171 160 158 162 156 150 146 134 126 116 104
290 261 122 57 50 68 97 47 332 281 209 195 199 174 211 193 116 52 354 56 51 12 348 56 135 218 199 196 220 217 205 219 237 227 215 202 161 129 107 64 41 54 61 38 351 259 256 265 255 257 262 266 273 279 320 341 301 271 264 259 249 250 257 262 262 255 256 261 251 248 258 253 205 190 192 183 183 185 174 176 181 170 160 158 147 139 130 115
319 354 10 348 36 71 100 71 24 340 67 254 235 140 228 208 146 112 38 48 51 45 13 62 203 224 215 211 224 227 212 205 217 231 227 213 168 125 125 185 117 44 1 329 329 260 254 254 250 254 259 267 277 283 294 303 285 277 277 272 263 254 247 248 253 261 271 270 259 260 262 252 242 226 206 189 186 192 189 189 190 177 168 166 156 155 157 142
17 28 26 332 316 37 45 23 12 18 60 23 284 65 165 200 161 124 89 87 98 33 286 201 188 229 232 225 230 221 212 211 212 215 209 207 197 167 167 183 160 123 256 221 144 282 265 263 260 259 262 266 270 273 273 271 269 269 270 269 268 263 252 248 251 257 264 262 263 279 274 251 246 254 245 220 202 207 205 196 190 178 170 169 167 172 170 156
27 53 44 322 326 35 24 352 336 346 40 37 32 53 32 102 109 87 48 33 155 85 325 222 167 120 158 221 245 228 208 220 211 197 198 195 204 215 211 192 173 180 215 215 86 8 281 275 272 269 270 271 269 266 263 260 260 261 260 259 259 259 257 256 254 256 259 260 263 277 280 260 249 267 275 269 229 226 221 198 185 179 175 173 174 177 171 159
15 22 359 310 12 41 20 357 318 282 57 22 20 64 46 44 86 90 49 8 27 72 351 255 133 78 70 149 235 172 69 16 32 99 45 243 194 224 249 251 189 187 209 253 24 132 259 277 300 282 276 273 271 268 262 258 259 260 259 256 256 256 255 254 255 256 258 262 265 267 271 265 257 261 265 264 191 226 220 200 191 184 177 175 178 178 171 161
358 355 323 303 14 13 354 18 343 286 77 46 28 50 50 52 64 80 72 39 27 40 18 357 57 80 132 109 83 69 51 19 10 35 1 303 305 313 286 333 330 252 240 269 257 187 244 266 274 271 270 272 272 268 265 267 270 266 261 256 252 252 252 252 253 252 250 257 263 260 260 267 269 259 251 239 222 230 229 217 200 181 173 178 182 178 170 160
350 315 300 292 350 17 347 8 352 306 61 40 30 43 48 59 69 76 95 68 47 40 24 2 351 281 201 113 68 36 9 342 330 337 328 305 307 300 284 293 295 281 276 275 264 245 256 268 272 268 269 275 277 277 281 284 277 269 266 258 248 248 255 257 255 253 251 251 256 259 265 290 327 289 261 256 252 248 245 233 203 179 175 182 185 179 170 156